Date,TemperatureHighF,TemperatureAvgF,TemperatureLowF,DewpointHighF,DewpointAvgF,DewpointLowF,HumidityHigh,HumidityAvg,HumidityLow,PressureMaxIn,PressureMinIn,WindSpeedMaxMPH,WindSpeedAvgMPH,GustSpeedMaxMPH,PrecipitationSumIn
2013-1-1,42.7,38.3,31.5,40.0,35.6,28.5,92,90,87,29.57,29.41,5,1,5,0.26
2013-1-2,34.6,30.2,26.3,28.7,25.1,22.3,89,81,71,29.66,29.55,6,1,6,0.00
2013-1-3,55.3,33.6,25.4,31.0,23.9,21.2,86,70,32,29.82,29.62,7,0,7,0.01
2013-1-4,55.3,34.5,25.4,31.4,24.1,20.3,83,67,34,29.88,29.79,5,1,5,0.00
2013-1-5,48.6,38.2,25.9,31.8,27.2,20.9,84,66,45,29.81,29.64,6,1,6,0.00
2013-1-6,53.6,40.0,28.3,38.0,30.7,22.0,86,70,51,29.78,29.58,7,1,7,0.00
2013-1-7,59.2,34.5,23.8,36.9,24.9,19.1,83,69,41,29.83,29.64,4,0,4,0.00
2013-1-8,61.6,45.2,30.6,42.0,33.7,24.6,82,66,42,29.73,29.62,8,1,8,0.00
2013-1-9,54.7,52.0,50.0,51.2,47.9,42.0,92,86,71,29.82,29.66,4,1,4,0.32
2013-1-10,64.8,58.2,51.3,59.9,55.3,48.7,94,90,83,29.79,29.39,8,2,8,0.81
2013-1-11,72.0,63.0,57.8,61.6,57.0,52.2,92,81,59,29.48,29.37,12,3,12,0.18
2013-1-12,68.4,66.4,64.4,64.8,62.6,61.0,94,88,80,29.45,29.25,12,2,12,0.66
2013-1-13,67.3,52.5,32.0,61.2,49.3,28.4,93,89,80,29.64,29.23,10,2,10,2.77
2013-1-14,32.4,29.7,27.9,28.6,25.8,23.2,89,85,79,29.79,29.63,8,2,8,0.01
2013-1-15,32.9,30.5,27.4,30.9,28.1,24.5,92,90,88,29.65,29.41,6,1,6,0.00
2013-1-16,34.0,33.0,32.0,31.7,30.8,30.1,92,92,90,29.54,29.38,0,0,0,0.00
2013-1-17,43.9,36.1,32.4,38.1,32.2,28.3,92,86,76,29.84,29.47,6,1,6,0.02
2013-1-18,58.5,37.4,27.4,38.0,28.9,23.9,89,73,41,29.96,29.77,5,1,5,0.00
2013-1-19,62.5,43.9,32.0,35.1,29.4,26.0,82,60,28,29.77,29.56,10,2,10,0.00
2013-1-20,61.6,44.4,31.3,39.0,29.9,22.3,79,58,33,29.67,29.57,6,1,6,0.00
2013-1-21,47.5,33.8,26.1,22.6,18.5,13.2,71,55,33,29.71,29.58,8,1,8,0.00
2013-1-22,37.8,27.6,21.2,14.8,10.0,7.2,59,48,33,29.83,29.68,6,1,6,0.00
2013-1-23,58.1,38.4,24.8,33.8,22.2,9.2,76,53,37,29.76,29.55,7,1,7,0.00
2013-1-24,40.3,33.2,27.7,31.2,17.7,10.8,80,54,36,29.87,29.61,10,2,10,0.00
2013-1-25,40.0,34.9,30.8,34.1,27.5,10.3,86,75,41,29.67,29.42,5,1,5,0.54
2013-1-26,55.4,37.2,29.9,37.1,29.7,25.9,90,76,46,29.74,29.65,4,0,4,0.00
2013-1-27,50.2,41.7,29.9,41.3,34.8,25.4,85,77,64,29.74,29.61,7,1,7,0.00
2013-1-28,60.1,55.3,49.3,52.1,46.9,38.4,83,74,64,29.64,29.53,10,2,10,0.00
2013-1-29,69.1,62.7,55.8,62.4,57.7,50.9,91,84,76,29.54,29.00,13,3,13,0.01
2013-1-30,70.9,54.8,35.5,62.4,49.1,26.1,92,81,66,29.32,28.85,17,3,17,1.48
2013-1-31,51.7,38.7,31.7,33.7,26.4,22.1,84,62,40,29.61,29.33,6,2,6,0.04
2013-2-1,37.4,26.2,18.0,24.6,16.0,10.7,78,66,44,29.89,29.64,2,1,2,0.02
2013-2-2,46.1,34.5,23.4,32.9,25.7,16.4,85,71,54,29.72,29.47,5,1,5,0.04
2013-2-3,51.7,39.6,30.8,35.7,29.2,24.1,82,67,47,29.57,29.43,6,1,6,0.00
2013-2-4,62.3,43.6,29.2,34.5,28.7,23.1,82,59,29,29.52,29.31,5,2,5,0.00
2013-2-5,68.9,51.5,41.8,43.9,36.4,31.6,74,58,33,29.47,29.33,5,1,5,0.00
2013-2-6,64.4,46.7,35.1,37.8,32.9,29.7,81,61,33,29.64,29.48,3,0,3,0.00
2013-2-7,66.2,53.1,41.8,47.6,41.1,32.5,79,64,51,29.51,29.31,4,1,4,0.00
2013-2-8,52.2,43.2,35.3,46.6,36.8,28.3,87,78,66,29.73,29.30,11,2,11,0.23
2013-2-9,58.1,42.0,33.1,34.9,30.3,26.6,78,65,38,29.76,29.53,5,1,5,0.00
2013-2-10,57.2,52.3,46.1,54.2,43.3,33.5,92,73,50,29.53,29.25,7,3,7,0.78
2013-2-11,57.8,49.0,40.3,54.4,37.5,30.3,92,66,43,29.58,29.34,5,2,5,0.00
2013-2-12,52.0,45.3,36.0,37.0,33.5,30.7,82,65,47,29.57,29.22,4,1,4,0.00
2013-2-13,43.6,39.4,34.9,37.0,34.8,31.2,88,84,76,29.41,29.14,4,1,4,0.23
2013-2-14,66.2,45.3,33.7,40.1,33.9,30.3,89,68,38,29.44,29.37,6,2,6,0.00
2013-2-15,51.1,42.3,31.5,36.6,30.2,21.2,78,63,44,29.59,29.43,6,1,6,0.00
2013-2-16,41.8,31.1,23.9,24.8,18.7,12.7,76,61,38,29.61,29.53,2,1,2,0.00
2013-2-17,44.1,31.0,21.8,21.9,17.6,13.9,73,59,37,29.67,29.55,4,1,4,0.00
2013-2-18,62.6,48.9,37.8,44.0,31.7,20.3,88,53,36,29.57,29.25,8,4,8,0.44
2013-2-19,50.2,42.4,30.2,44.6,29.7,20.7,88,63,37,29.63,29.26,9,2,9,0.19
2013-2-20,34.9,30.0,24.5,21.4,18.0,15.8,72,61,47,29.74,29.62,4,1,4,0.00
2013-2-21,45.4,35.4,26.6,42.9,25.9,17.6,91,70,42,29.63,29.26,6,2,6,0.64
2013-2-22,61.2,50.9,42.1,47.3,42.9,34.7,92,76,49,29.46,29.25,8,2,8,0.04
2013-2-23,53.8,42.5,35.5,37.3,32.3,27.3,82,68,49,29.44,29.32,3,1,3,0.00
2013-2-24,55.1,40.4,28.4,30.8,27.1,23.6,82,62,37,29.54,29.40,5,1,5,0.00
2013-2-25,61.9,49.1,34.4,44.0,32.5,25.7,75,55,32,29.41,28.94,5,2,5,0.02
2013-2-26,50.8,45.7,38.2,47.1,40.6,34.0,88,83,65,29.13,28.81,7,3,7,0.48
2013-2-27,39.4,38.4,37.6,34.0,32.0,30.6,83,77,73,29.32,29.13,6,3,6,0.01
2013-2-28,39.1,36.9,34.2,31.1,28.7,26.8,79,72,65,29.47,29.28,3,1,3,0.00
2013-3-1,38.3,35.4,32.9,32.6,30.5,29.4,87,82,77,29.48,29.42,4,1,4,0.02
2013-3-2,33.3,31.9,29.7,29.8,27.8,25.2,88,85,81,29.57,29.45,3,1,3,0.01
2013-3-3,43.6,33.8,23.8,27.2,23.2,19.4,84,67,44,29.58,29.49,4,1,4,0.10
2013-3-4,56.0,45.2,33.3,33.8,27.6,22.1,72,52,37,29.52,29.24,5,2,5,0.00
2013-3-5,55.4,46.4,32.9,52.6,39.6,22.1,90,78,51,29.44,29.13,4,2,4,0.75
2013-3-6,41.4,35.5,30.2,29.8,26.3,23.3,79,69,60,29.70,29.44,5,2,5,0.00
2013-3-7,47.3,35.5,29.2,32.9,27.2,23.7,82,72,54,29.79,29.69,3,1,3,0.00
2013-3-8,58.5,41.3,27.2,33.4,26.9,21.5,85,60,27,29.81,29.67,5,1,5,0.00
2013-3-9,66.4,52.1,38.5,36.8,32.3,27.4,69,49,28,29.66,29.43,5,1,5,0.00
2013-3-10,69.5,60.7,55.1,52.2,40.1,33.9,86,49,35,29.43,29.21,9,3,9,0.21
2013-3-11,56.7,46.1,39.6,53.5,40.5,31.2,89,81,71,29.41,29.20,7,2,7,1.29
2013-3-12,56.5,43.6,31.7,35.1,30.3,26.6,82,61,38,29.56,29.40,5,1,5,0.00
2013-3-13,47.5,40.3,31.7,30.6,24.9,20.4,73,55,38,29.80,29.56,7,2,7,0.00
2013-3-14,52.9,38.7,25.7,33.0,24.0,18.8,75,58,31,29.82,29.61,5,1,5,0.02
2013-3-15,77.0,58.4,37.1,47.7,38.0,26.0,68,48,35,29.60,29.30,7,3,7,0.00
2013-3-16,79.6,66.6,57.4,51.9,48.0,44.1,65,52,38,29.36,29.24,7,3,7,0.00
2013-3-17,56.5,51.8,46.6,48.7,43.4,40.0,80,73,63,29.38,29.20,4,1,4,0.00
2013-3-18,63.9,57.6,44.3,57.6,50.9,38.8,90,79,70,29.40,29.11,6,2,6,0.72
2013-3-19,58.7,46.5,36.5,39.3,30.5,21.4,89,58,27,29.59,29.42,5,1,5,0.00
2013-3-20,55.8,42.3,31.3,31.1,26.2,17.4,70,54,36,29.58,29.43,6,1,6,0.00
2013-3-21,47.3,35.2,23.2,22.3,18.5,15.2,72,52,31,29.50,29.35,8,1,8,0.00
2013-3-22,48.2,41.1,34.7,30.6,23.7,19.1,58,50,41,29.43,29.36,3,1,3,0.00
2013-3-23,54.0,46.9,41.0,44.4,38.9,30.6,85,74,58,29.39,29.13,4,1,4,0.07
2013-3-24,54.4,46.4,35.5,51.8,41.5,27.3,93,83,66,29.16,28.86,8,2,8,0.31
2013-3-25,36.4,34.4,33.1,28.0,26.3,24.7,79,72,64,29.53,29.17,6,3,6,0.01
2013-3-26,40.7,36.0,31.9,30.1,28.4,25.7,85,74,61,29.74,29.54,4,1,4,0.04
2013-3-27,54.5,40.4,28.1,32.2,27.3,23.6,83,62,38,29.80,29.70,6,1,6,0.01
2013-3-28,62.5,49.0,35.5,36.6,32.8,27.6,76,56,36,29.78,29.67,3,1,3,0.00
2013-3-29,50.4,47.9,45.7,45.1,40.6,35.7,88,76,65,29.72,29.60,2,0,2,0.33
2013-3-30,58.7,50.6,45.9,51.6,46.9,43.4,91,87,72,29.61,29.34,4,1,4,0.15
2013-3-31,56.5,53.1,45.5,53.6,50.1,43.0,92,90,82,29.36,29.29,5,1,5,0.18
2013-4-1,65.2,52.2,43.0,45.3,40.5,32.0,91,67,43,29.56,29.33,6,2,6,0.05
2013-4-2,50.2,43.4,37.1,31.5,28.6,25.3,73,57,39,29.68,29.56,5,1,5,0.00
2013-4-3,55.4,46.4,33.7,31.1,25.3,22.1,71,46,29,29.69,29.57,6,2,6,0.00
2013-4-4,47.3,43.8,39.6,42.5,36.7,24.5,90,77,42,29.57,29.41,3,1,3,0.69
2013-4-5,68.9,54.2,42.7,45.2,40.4,36.5,90,64,35,29.54,29.43,4,1,4,0.00
2013-4-6,74.2,58.6,42.1,44.6,38.8,35.4,80,52,29,29.55,29.37,10,2,10,0.00
2013-4-7,75.2,64.2,56.0,51.2,44.8,39.2,66,51,33,29.48,29.39,6,3,6,0.00
2013-4-8,77.4,65.0,52.2,55.7,51.1,43.8,77,62,42,29.45,29.34,8,2,8,0.00
2013-4-9,77.4,68.1,59.9,62.5,58.2,53.5,81,71,58,29.53,29.39,6,1,6,0.00
2013-4-10,85.3,74.0,64.1,62.2,58.5,55.2,80,60,43,29.45,29.21,5,2,5,0.00
2013-4-11,73.8,63.2,49.1,59.9,56.6,46.4,93,81,54,29.21,28.99,5,1,5,1.89
2013-4-12,67.1,52.9,40.3,46.4,40.7,37.0,90,66,38,29.40,29.14,5,2,5,0.02
2013-4-13,71.6,54.6,39.2,43.4,38.6,33.7,82,58,30,29.52,29.39,4,1,4,0.00
2013-4-14,70.7,58.3,47.3,50.0,45.2,40.6,81,64,40,29.41,29.27,5,2,5,0.00
2013-4-15,81.9,67.9,52.7,58.9,54.8,47.4,86,65,42,29.42,29.30,5,2,5,0.00
2013-4-16,79.9,71.0,64.8,67.2,62.9,57.8,85,76,65,29.55,29.41,4,1,4,0.00
2013-4-17,87.5,75.6,65.7,68.0,64.0,61.7,90,70,43,29.56,29.36,6,1,6,0.00
2013-4-18,81.5,73.9,67.3,64.5,61.8,59.2,84,67,48,29.36,29.03,7,3,7,0.14
2013-4-19,67.3,46.5,39.1,63.3,39.0,33.1,88,75,60,29.53,29.05,5,2,5,0.69
2013-4-20,64.8,50.2,37.4,39.4,35.3,32.0,83,60,32,29.71,29.53,6,1,6,0.00
2013-4-21,69.5,54.1,39.2,40.9,36.9,33.0,81,56,28,29.79,29.64,6,1,6,0.00
2013-4-22,74.7,59.2,43.7,47.5,43.0,37.5,81,58,34,29.68,29.50,6,1,6,0.00
2013-4-23,74.0,63.9,52.2,55.0,50.5,44.8,77,62,49,29.53,29.37,5,1,5,0.00
2013-4-24,66.1,53.8,45.4,59.1,46.9,38.4,88,78,68,29.70,29.27,8,2,8,0.63
2013-4-25,69.5,52.9,37.1,42.3,38.2,33.2,87,61,34,29.78,29.68,3,1,3,0.00
2013-4-26,61.9,51.4,43.2,46.8,43.3,37.2,87,75,55,29.85,29.66,3,0,3,0.22
2013-4-27,61.2,55.0,49.9,58.0,52.2,46.1,93,90,87,29.74,29.34,3,1,3,2.38
2013-4-28,68.8,60.5,55.6,58.2,55.2,50.5,94,83,66,29.38,29.32,3,1,3,0.10
2013-4-29,77.2,61.8,50.8,59.1,52.3,47.3,91,73,44,29.45,29.33,3,0,3,0.00
2013-4-30,83.3,66.9,51.8,60.3,53.7,48.1,89,66,40,29.44,29.35,4,0,4,0.00
2013-5-1,79.6,67.7,55.6,62.4,57.4,51.1,87,71,53,29.54,29.43,2,0,2,0.00
2013-5-2,79.0,67.2,58.0,64.2,58.4,53.5,85,74,53,29.57,29.47,3,0,3,0.00
2013-5-3,75.1,64.2,46.3,59.0,54.8,42.0,85,73,53,29.47,29.24,5,1,5,0.30
2013-5-4,51.7,46.5,42.5,44.3,41.8,39.5,89,84,72,29.39,29.30,2,0,2,0.87
2013-5-5,61.7,53.5,44.5,49.9,46.7,41.1,89,78,61,29.34,29.22,4,0,4,0.00
2013-5-6,65.5,55.7,51.7,54.9,50.6,47.7,90,84,67,29.32,29.19,2,0,2,0.12
2013-5-7,71.1,58.8,46.3,58.3,52.2,43.5,91,80,61,29.42,29.33,3,0,3,0.00
2013-5-8,80.8,67.1,56.2,61.3,56.8,52.9,89,71,48,29.47,29.38,3,0,3,0.00
2013-5-9,83.3,70.6,59.2,63.4,58.7,54.1,84,68,44,29.50,29.39,2,0,2,0.00
2013-5-10,69.5,65.6,63.0,63.8,61.0,59.0,91,85,76,29.42,29.30,2,0,2,0.70
2013-5-11,65.9,62.1,56.5,61.4,55.7,49.7,92,80,65,29.48,29.34,3,1,3,0.01
2013-5-12,65.7,55.4,45.4,49.7,39.2,34.8,81,57,34,29.59,29.48,3,1,3,0.00
2013-5-13,70.6,56.8,41.9,45.4,40.4,35.4,81,57,34,29.68,29.55,3,0,3,0.00
2013-5-14,86.0,69.1,51.8,59.9,52.8,41.7,74,58,38,29.59,29.41,3,1,3,0.00
2013-5-15,86.8,73.0,63.4,60.3,55.7,52.2,70,56,34,29.52,29.39,3,1,3,0.00
2013-5-16,84.1,72.9,64.1,65.0,59.7,55.3,78,64,50,29.45,29.35,1,0,1,0.00
2013-5-17,69.1,66.0,62.8,65.5,61.8,55.6,92,86,74,29.46,29.35,2,0,2,0.59
2013-5-18,82.4,72.7,65.9,70.4,66.6,63.2,93,82,65,29.43,29.37,2,0,2,0.02
2013-5-19,87.8,76.7,67.3,75.3,69.3,64.1,92,79,60,29.42,29.35,4,1,4,0.00
2013-5-20,83.9,75.0,67.3,72.3,68.1,64.0,91,80,67,29.44,29.33,2,0,2,0.00
2013-5-21,79.0,70.9,64.4,72.2,66.0,61.6,90,85,74,29.43,29.26,3,0,3,1.29
2013-5-22,76.0,69.0,62.3,68.1,64.0,59.9,92,84,70,29.31,29.23,4,1,4,0.13
2013-5-23,77.0,70.3,62.6,61.8,58.6,54.2,89,67,54,29.51,29.38,4,1,4,0.00
2013-5-24,72.2,61.9,55.4,55.6,50.6,48.5,81,68,48,29.73,29.51,3,1,3,0.00
2013-5-25,78.7,63.6,48.6,58.1,50.6,44.3,86,65,34,29.75,29.58,4,0,4,0.00
2013-5-26,84.2,69.1,54.0,63.7,56.0,48.2,83,65,43,29.64,29.53,2,0,2,0.00
2013-5-27,86.8,72.9,59.8,65.4,60.7,54.2,82,67,49,29.56,29.44,3,1,3,0.00
2013-5-28,87.1,76.2,67.3,64.9,61.3,59.0,76,61,43,29.51,29.43,3,1,3,0.00
2013-5-29,87.3,76.4,67.3,69.3,64.9,60.3,80,68,54,29.54,29.43,2,0,2,0.00
2013-5-30,84.1,77.1,70.7,71.2,66.7,62.7,79,71,63,29.53,29.41,4,1,4,0.00
2013-5-31,82.6,76.6,72.2,73.1,68.4,64.5,82,76,70,29.47,29.37,2,1,2,0.00
2013-6-1,81.7,73.0,66.1,70.6,66.6,62.8,91,81,69,29.42,29.25,2,1,2,0.40
2013-6-2,78.3,70.2,65.0,70.0,65.0,60.0,92,84,68,29.38,29.31,4,0,4,0.01
2013-6-3,78.3,67.4,59.9,64.5,59.9,56.0,90,78,57,29.45,29.36,4,1,4,0.00
2013-6-4,82.8,69.4,56.7,65.5,59.9,52.8,88,73,50,29.47,29.39,2,0,2,0.00
2013-6-5,82.4,71.9,63.0,72.7,65.6,58.4,91,81,67,29.41,29.27,2,0,2,0.39
2013-6-6,80.5,72.2,67.0,71.5,66.9,63.9,91,84,73,29.27,29.18,4,0,4,0.10
2013-6-7,76.7,70.7,65.7,69.7,65.4,61.4,91,83,72,29.30,29.18,2,0,2,0.00
2013-6-8,83.3,71.3,61.0,66.3,62.1,57.8,90,74,51,29.43,29.28,2,0,2,0.00
2013-6-9,82.8,71.2,63.2,74.4,65.8,58.1,92,83,71,29.45,29.28,2,0,2,0.95
2013-6-10,83.9,72.9,65.9,74.2,67.9,63.2,92,85,66,29.37,29.27,2,0,2,0.31
2013-6-11,91.3,78.8,66.4,77.2,71.5,63.6,91,79,62,29.45,29.36,3,0,3,0.00
2013-6-12,92.3,83.3,75.2,78.2,74.3,71.2,87,75,61,29.49,29.33,2,1,2,0.00
2013-6-13,88.7,79.0,68.9,76.3,70.2,62.9,84,75,57,29.38,29.27,4,1,4,0.00
2013-6-14,83.3,72.1,60.1,63.5,60.5,55.4,85,68,46,29.46,29.36,3,0,3,0.00
2013-6-15,87.8,74.9,62.5,68.7,64.1,57.9,85,71,50,29.52,29.43,2,0,2,0.00
2013-6-16,85.5,75.8,68.2,73.8,68.1,63.2,85,78,67,29.49,29.42,2,0,2,0.00
2013-6-17,86.8,76.6,70.9,76.1,71.0,67.5,90,83,70,29.41,29.31,2,0,2,0.55
2013-6-18,80.8,72.1,66.2,70.5,66.8,63.5,92,84,66,29.39,29.25,3,0,3,0.58
2013-6-19,86.9,76.0,66.6,72.3,68.0,63.5,90,77,55,29.48,29.38,3,0,3,0.01
2013-6-20,89.1,77.2,67.0,73.7,69.0,63.3,89,77,59,29.57,29.49,2,0,2,0.00
2013-6-21,86.8,76.6,67.5,75.9,69.0,63.2,87,78,67,29.63,29.53,1,0,1,0.00
2013-6-22,88.7,77.7,67.3,73.4,68.6,63.5,88,75,57,29.62,29.49,1,0,1,0.00
2013-6-23,87.7,77.9,67.7,73.6,68.8,62.6,84,74,57,29.58,29.47,2,0,2,0.00
2013-6-24,90.0,77.9,70.4,76.1,70.0,65.4,85,77,59,29.59,29.48,2,0,2,0.00
2013-6-25,90.2,80.6,72.0,77.4,72.4,67.2,88,77,63,29.53,29.39,2,0,2,0.01
2013-6-26,90.7,81.1,71.5,77.1,72.5,65.0,87,76,62,29.43,29.26,3,0,3,0.28
2013-6-27,90.9,80.5,69.1,79.1,71.9,65.0,89,76,58,29.35,29.25,3,1,3,0.16
2013-6-28,86.9,78.9,72.0,74.5,70.5,66.9,85,76,62,29.28,29.12,3,1,3,0.00
2013-6-29,85.5,76.1,66.2,67.7,64.9,58.8,84,69,52,29.16,29.08,3,1,3,0.00
2013-6-30,80.1,70.3,60.8,69.0,62.8,56.3,86,78,62,29.23,29.12,2,0,2,0.13
2013-7-1,74.2,68.7,64.4,68.1,64.0,60.8,90,85,76,29.32,29.20,2,0,2,0.08
2013-7-2,79.7,70.2,63.9,68.1,64.1,60.7,90,81,65,29.45,29.30,2,0,2,0.00
2013-7-3,84.6,72.2,61.9,69.8,64.7,58.4,88,78,57,29.51,29.45,2,0,2,0.00
2013-7-4,71.6,69.3,67.3,67.0,65.4,64.1,90,88,81,29.51,29.45,3,0,3,0.54
2013-7-5,79.4,72.2,67.5,73.1,68.3,64.4,91,88,80,29.52,29.45,2,0,2,0.70
2013-7-6,73.1,69.7,68.0,68.7,66.3,65.0,90,89,86,29.54,29.48,0,0,0,0.36
2013-7-7,86.2,75.4,66.2,74.8,69.4,63.2,91,82,66,29.55,29.48,3,0,3,0.05
2013-7-8,88.7,79.1,69.5,76.1,71.8,65.9,89,79,65,29.59,29.50,1,0,1,0.00
2013-7-9,91.6,81.6,72.0,77.7,73.6,68.0,89,77,63,29.57,29.45,2,0,2,0.00
2013-7-10,92.0,82.0,73.3,79.9,74.3,69.2,87,78,68,29.47,29.31,3,0,3,0.02
2013-7-11,88.9,77.8,69.3,77.1,71.4,62.9,88,81,65,29.40,29.34,4,0,4,0.24
2013-7-12,83.9,72.9,63.4,69.6,63.0,59.5,87,72,50,29.45,29.38,3,1,3,0.00
2013-7-13,84.1,72.7,61.6,68.3,63.7,57.1,86,74,58,29.46,29.41,4,0,4,0.00
2013-7-14,87.1,76.0,68.0,75.2,69.1,63.7,88,80,64,29.57,29.45,2,0,2,0.01
2013-7-15,86.9,78.6,70.9,75.1,71.0,66.9,88,78,65,29.67,29.57,2,0,2,0.00
2013-7-16,91.1,80.7,69.5,75.8,71.7,65.4,87,75,59,29.74,29.66,2,0,2,0.00
2013-7-17,93.6,82.9,73.1,78.1,73.6,68.7,87,75,55,29.73,29.60,4,0,4,0.00
2013-7-18,91.8,79.5,71.6,78.4,72.7,67.6,87,80,61,29.62,29.48,2,0,2,0.07
2013-7-19,91.6,80.6,70.7,76.8,72.0,66.9,89,76,58,29.52,29.37,1,0,1,0.00
2013-7-20,80.3,75.1,71.6,71.3,68.9,66.9,86,81,74,29.42,29.38,0,0,0,0.00
2013-7-21,85.9,76.8,72.2,77.4,71.4,67.8,88,84,75,29.41,29.33,2,0,2,0.18
2013-7-22,76.9,73.1,70.4,71.5,68.9,66.9,89,87,82,29.36,29.30,2,0,2,0.52
2013-7-23,88.9,77.7,71.5,75.6,71.0,67.7,90,81,61,29.35,29.25,3,0,3,0.09
2013-7-24,86.6,77.4,69.7,73.5,68.9,63.2,85,75,65,29.38,29.30,3,0,3,0.00
2013-7-25,83.9,72.1,63.0,67.5,63.1,58.8,87,74,53,29.48,29.37,3,0,3,0.00
2013-7-26,85.3,73.2,62.3,69.1,64.1,57.7,88,74,56,29.48,29.38,2,0,2,0.00
2013-7-27,83.3,74.1,67.0,69.4,66.0,63.0,88,77,58,29.42,29.31,3,0,3,0.05
2013-7-28,77.4,68.7,59.4,63.2,59.2,55.3,87,73,53,29.51,29.38,4,0,4,0.00
2013-7-29,80.3,69.1,59.0,64.5,60.6,54.5,87,75,56,29.60,29.49,1,0,1,0.00
2013-7-30,80.6,71.6,63.7,71.2,66.0,58.8,88,82,67,29.60,29.50,1,0,1,0.23
2013-7-31,84.6,73.5,69.1,75.3,68.6,65.4,89,85,72,29.50,29.35,2,0,2,0.71
2013-8-1,82.1,72.3,67.7,72.0,67.5,64.0,89,85,67,29.47,29.38,2,0,2,0.00
2013-8-2,85.7,78.5,66.2,70.2,67.4,62.6,88,69,58,29.47,29.40,2,0,2,0.00
2013-8-3,78.5,73.2,68.9,72.9,68.3,64.3,88,85,78,29.49,29.40,2,0,2,0.74
2013-8-4,83.0,74.7,67.7,71.9,67.9,62.4,89,80,64,29.54,29.46,2,0,2,0.00
2013-8-5,79.2,70.6,65.3,68.7,64.5,60.8,88,81,68,29.51,29.38,2,0,2,0.11
2013-8-6,82.8,75.8,68.0,76.4,70.8,64.0,88,84,78,29.41,29.34,1,0,1,0.00
2013-8-7,83.3,76.1,70.9,76.8,71.5,67.1,89,86,80,29.45,29.33,2,0,2,2.18
2013-8-8,84.1,76.1,72.4,77.6,71.3,68.1,88,85,81,29.42,29.34,1,0,1,0.47
2013-8-9,92.0,79.4,72.0,80.4,73.2,68.2,88,82,69,29.47,29.37,3,0,3,0.74
2013-8-10,86.2,77.6,70.9,76.3,71.6,67.1,89,82,70,29.56,29.45,3,0,3,0.01
2013-8-11,86.4,81.5,73.4,78.2,74.8,69.0,86,80,75,29.56,29.47,2,0,2,0.00
2013-8-12,81.4,75.7,71.5,75.7,71.0,67.4,88,85,79,29.51,29.35,2,0,2,0.32
2013-8-13,83.5,74.9,69.5,74.4,69.1,64.4,88,83,72,29.42,29.35,3,0,3,0.02
2013-8-14,79.2,68.2,61.0,64.4,59.5,55.7,85,75,55,29.51,29.42,3,1,3,0.00
2013-8-15,80.8,67.4,55.8,66.9,59.4,51.7,87,76,58,29.50,29.42,2,0,2,0.00
2013-8-16,77.0,72.6,65.0,67.4,65.4,60.7,88,79,69,29.50,29.45,1,0,1,0.00
2013-8-17,77.8,70.8,67.1,68.4,65.2,63.0,87,83,73,29.55,29.48,2,0,2,0.01
2013-8-18,81.7,72.3,66.6,69.5,65.8,62.6,88,81,64,29.57,29.49,2,0,2,0.01
2013-8-19,85.1,74.0,66.2,73.0,67.6,62.2,88,81,67,29.55,29.45,2,0,2,0.00
2013-8-20,88.2,75.5,69.1,76.8,69.4,64.7,87,82,66,29.56,29.46,1,0,1,0.28
2013-8-21,87.3,77.0,69.1,76.2,70.5,65.3,88,81,67,29.59,29.50,2,0,2,0.00
2013-8-22,88.0,77.8,69.7,76.4,71.3,65.6,87,81,66,29.57,29.46,1,0,1,0.00
2013-8-23,91.8,77.7,70.6,76.2,70.5,66.2,87,79,60,29.51,29.42,2,0,2,0.00
2013-8-24,90.2,77.5,68.0,74.4,69.3,64.0,87,77,58,29.62,29.50,2,0,2,0.00
2013-8-25,88.4,76.7,68.8,74.2,68.6,64.1,86,77,58,29.73,29.62,1,0,1,0.00
2013-8-26,87.5,74.8,67.3,72.4,66.9,62.6,86,77,58,29.71,29.56,0,0,0,0.00
2013-8-27,87.5,75.9,66.8,72.9,67.6,61.7,85,76,58,29.58,29.47,2,0,2,0.00
2013-8-28,90.2,78.6,69.8,75.9,70.5,65.4,86,77,61,29.51,29.43,2,0,2,0.00
2013-8-29,93.4,83.5,71.6,77.1,73.6,66.9,85,73,55,29.48,29.39,1,0,1,0.00
2013-8-30,91.8,82.3,74.2,77.9,73.3,69.4,86,75,60,29.43,29.33,1,0,1,0.00
2013-8-31,94.1,82.2,73.1,77.7,72.9,68.1,85,74,56,29.36,29.26,0,0,0,0.00
2013-9-1,80.1,73.6,66.6,71.8,68.3,62.9,88,83,76,29.38,29.26,2,0,2,0.85
2013-9-2,86.9,75.8,68.6,76.9,70.2,64.7,88,83,72,29.36,29.26,0,0,0,0.01
2013-9-3,86.9,75.0,67.3,70.8,66.8,63.3,87,77,55,29.46,29.33,0,0,0,0.00
2013-9-4,85.7,72.1,63.7,70.0,64.1,59.1,87,77,57,29.56,29.45,1,0,1,0.00
2013-9-5,85.7,78.2,69.3,68.7,66.4,63.0,81,68,54,29.60,29.54,0,0,0,0.00
2013-9-6,90.0,78.5,66.4,72.2,68.0,62.1,86,71,51,29.58,29.48,0,0,0,0.00
2013-9-7,91.3,76.1,65.2,73.5,67.0,60.6,87,75,52,29.52,29.41,1,0,1,0.00
2013-9-8,89.5,78.5,68.6,74.9,69.7,63.9,85,75,59,29.44,29.36,0,0,0,0.00
2013-9-9,90.4,78.6,70.7,75.8,70.8,65.8,85,77,59,29.48,29.40,1,0,1,0.00
2013-9-10,88.4,76.9,71.3,76.8,70.7,66.9,86,81,68,29.58,29.48,1,0,1,0.01
2013-9-11,89.5,78.1,70.7,75.3,70.6,66.3,86,79,61,29.62,29.51,2,0,2,0.00
2013-9-12,88.2,77.9,72.4,74.5,70.9,67.2,85,79,64,29.50,29.35,2,0,2,0.00
2013-9-13,79.2,68.2,58.3,67.4,58.6,51.5,86,73,45,29.45,29.37,4,1,4,0.01
2013-9-14,76.9,61.6,50.4,56.3,51.7,46.0,86,71,48,29.51,29.43,5,1,5,0.00
2013-9-15,82.4,66.9,53.5,64.0,57.3,49.3,87,73,50,29.52,29.48,1,0,1,0.00
2013-9-16,83.5,70.0,59.4,66.5,60.7,54.7,85,74,49,29.59,29.51,3,0,3,0.00
2013-9-17,83.5,70.4,63.0,69.1,63.4,58.8,86,79,62,29.60,29.50,2,0,2,0.00
2013-9-18,81.5,73.0,67.3,70.8,66.0,61.7,85,79,69,29.58,29.48,2,0,2,0.00
2013-9-19,88.0,75.3,67.1,72.1,66.5,62.5,85,75,56,29.56,29.43,2,0,2,0.00
2013-9-20,85.7,74.6,67.9,72.4,67.3,62.2,86,78,62,29.44,29.22,2,0,2,0.43
2013-9-21,74.2,66.8,58.0,66.3,59.4,52.5,88,78,57,29.29,29.19,3,1,3,0.56
2013-9-22,76.3,62.1,53.1,58.3,53.3,49.0,86,74,48,29.36,29.28,3,0,3,0.01
2013-9-23,81.0,63.8,51.5,62.6,55.5,47.3,87,76,51,29.41,29.35,2,0,2,0.00
2013-9-24,82.3,67.9,58.3,67.4,61.2,54.2,87,80,61,29.40,29.26,2,0,2,0.02
2013-9-25,77.0,68.6,64.8,67.8,63.5,60.2,88,84,73,29.30,29.22,1,0,1,0.38
2013-9-26,77.9,67.2,61.2,68.6,61.7,57.3,88,83,70,29.44,29.29,3,0,3,0.00
2013-9-27,85.1,67.7,56.9,68.1,60.3,52.8,88,78,51,29.53,29.44,2,0,2,0.02
2013-9-28,81.0,67.5,59.6,63.3,58.8,55.4,86,75,54,29.59,29.48,2,0,2,0.00
2013-9-29,69.5,64.3,60.3,61.7,58.4,55.2,87,81,72,29.51,29.41,1,0,1,0.04
2013-9-30,74.7,66.4,61.9,64.0,60.2,58.1,87,81,69,29.45,29.39,3,0,3,0.00
2013-10-1,81.0,70.0,61.4,69.9,63.7,57.3,87,81,69,29.51,29.42,2,0,2,0.00
2013-10-2,80.8,73.3,68.8,71.5,66.9,64.1,85,81,71,29.54,29.47,2,0,2,0.00
2013-10-3,83.9,73.3,68.0,68.8,64.9,62.2,86,76,55,29.51,29.42,2,0,2,0.00
2013-10-4,84.4,73.7,67.0,71.8,66.2,61.9,84,78,64,29.52,29.44,2,0,2,0.00
2013-10-5,87.5,75.7,68.0,72.9,67.9,63.0,85,77,60,29.48,29.32,2,0,2,0.00
2013-10-6,73.4,64.3,54.2,67.3,58.9,49.5,86,83,77,29.36,29.25,2,0,2,0.27
2013-10-7,65.3,55.2,47.9,53.3,48.3,44.1,87,78,61,29.52,29.35,3,0,3,0.00
2013-10-8,70.2,57.1,48.1,53.2,48.5,43.7,86,74,51,29.56,29.49,5,0,5,0.00
2013-10-9,74.5,62.3,51.8,64.5,55.7,47.4,87,79,66,29.58,29.51,2,0,2,0.00
2013-10-10,76.1,65.6,59.2,64.4,59.3,54.9,86,80,64,29.57,29.45,1,0,1,0.00
2013-10-11,77.9,65.0,55.8,63.2,57.3,51.3,86,77,57,29.50,29.41,2,0,2,0.00
2013-10-12,76.7,65.5,54.7,65.2,58.5,50.2,86,78,64,29.54,29.43,2,0,2,0.00
2013-10-13,78.1,68.2,62.3,65.7,61.1,56.3,84,78,65,29.66,29.54,2,0,2,0.00
2013-10-14,78.3,65.7,54.7,63.2,57.1,50.0,84,75,54,29.65,29.51,2,0,2,0.00
2013-10-15,74.5,67.7,62.3,63.7,60.4,57.1,84,78,69,29.52,29.39,2,0,2,0.00
2013-10-16,68.0,63.0,58.1,62.7,58.0,53.7,86,84,80,29.40,29.34,1,0,1,0.00
2013-10-17,74.9,57.0,50.2,63.6,51.1,45.8,86,81,58,29.42,29.32,3,0,3,0.00
2013-10-18,65.2,54.7,46.4,52.8,47.8,42.2,86,78,59,29.49,29.37,1,0,1,0.00
2013-10-19,54.4,50.7,41.9,49.3,45.6,37.7,86,83,76,29.47,29.31,1,0,1,0.00
2013-10-20,61.6,48.5,39.4,45.7,40.5,35.6,87,75,52,29.51,29.42,2,0,2,0.00
2013-10-21,67.3,53.6,42.8,49.1,44.0,37.8,84,71,47,29.48,29.38,2,0,2,0.00
2013-10-22,60.1,52.5,47.2,49.2,45.3,42.8,85,77,56,29.46,29.27,1,0,1,0.00
2013-10-23,51.7,46.4,42.1,44.3,38.0,34.9,82,73,56,29.51,29.28,3,0,3,0.00
2013-10-24,52.9,46.2,36.4,42.7,38.2,30.4,81,74,60,29.76,29.51,2,0,2,0.00
2013-10-25,49.1,38.8,31.5,32.7,29.4,26.4,81,70,49,29.89,29.72,1,0,1,0.00
2013-10-26,58.7,47.1,33.8,44.1,35.6,27.8,80,66,44,29.72,29.49,2,0,2,0.00
2013-10-27,62.8,56.5,51.5,54.4,49.3,43.5,83,77,71,29.52,29.45,1,0,1,0.00
2013-10-28,63.7,57.9,51.7,57.1,53.0,47.5,86,84,79,29.65,29.48,1,0,1,0.00
2013-10-29,68.8,58.5,48.2,60.8,53.4,44.3,87,83,76,29.69,29.56,2,0,2,0.00
2013-10-30,74.5,66.2,58.7,62.7,58.1,54.2,85,76,61,29.61,29.45,2,0,2,0.00
2013-10-31,68.8,65.0,61.6,62.6,59.1,55.8,85,81,72,29.45,28.98,8,2,8,0.00
2013-11-1,68.4,58.6,50.0,57.4,49.0,44.1,86,72,45,29.25,29.11,5,1,5,0.00
2013-11-2,61.0,51.2,44.6,46.3,43.1,38.5,85,75,54,29.57,29.25,2,0,2,0.00
2013-11-3,57.4,45.9,38.9,40.4,36.8,33.9,85,72,49,29.71,29.57,2,0,2,0.00
2013-11-4,62.6,50.4,38.3,44.6,39.9,33.0,84,69,46,29.75,29.64,2,0,2,0.00
2013-11-5,68.6,57.0,49.7,47.5,43.4,39.7,73,61,43,29.77,29.61,2,0,2,0.00
2013-11-6,70.7,60.8,47.9,57.6,51.7,42.4,84,73,61,29.62,29.43,6,1,6,0.00
2013-11-7,57.4,44.7,37.8,43.3,35.5,30.9,86,72,46,29.74,29.54,4,1,4,0.00
2013-11-8,60.8,44.3,34.2,36.9,32.7,29.5,84,65,41,29.79,29.63,3,0,3,0.00
2013-11-9,63.2,48.1,37.1,39.3,33.9,28.9,73,60,35,29.67,29.58,5,0,5,0.00
2013-11-10,69.5,50.5,40.3,44.0,37.1,30.6,81,62,37,29.76,29.64,3,1,3,0.00
2013-11-11,75.2,51.9,36.2,37.0,31.2,21.1,77,51,18,29.70,29.55,2,0,2,0.00
2013-11-12,47.0,36.9,29.9,32.0,23.8,19.8,82,60,41,30.00,29.83,5,1,5,0.00
2013-11-13,51.5,34.0,26.1,28.5,22.0,19.5,78,62,40,30.08,29.82,3,0,3,0.00
2013-11-14,63.5,40.8,28.4,25.8,22.0,19.2,71,51,22,29.82,29.58,4,1,4,0.00
2013-11-15,53.5,47.9,36.9,47.3,38.8,24.4,86,71,58,29.60,29.47,2,0,2,0.00
2013-11-16,63.2,57.8,51.1,57.6,53.1,47.0,86,84,82,29.51,29.34,5,1,5,0.00
2013-11-17,69.8,64.4,52.7,64.1,59.2,48.3,85,83,81,29.36,29.13,5,2,5,0.00
2013-11-18,66.6,50.4,40.9,48.3,39.4,30.7,85,68,43,29.64,29.36,4,1,4,0.00
2013-11-19,51.3,42.4,35.6,31.8,29.9,27.8,74,62,44,29.68,29.58,6,1,6,0.00
2013-11-20,64.3,45.5,32.0,35.9,32.1,26.9,82,62,34,29.62,29.53,4,1,4,0.00
2013-11-21,69.1,56.5,44.3,52.1,46.1,35.3,82,69,48,29.68,29.56,7,1,7,0.00
2013-11-22,59.0,53.5,43.6,54.5,48.9,39.6,86,84,82,29.75,29.59,6,1,6,0.00
2013-11-23,45.0,38.8,24.8,39.8,30.0,16.0,86,71,47,29.94,29.72,4,2,4,0.00
2013-11-24,37.8,28.0,20.5,20.6,16.5,13.5,76,62,45,30.03,29.84,4,1,4,0.00
2013-11-25,40.3,33.7,28.3,29.7,22.4,16.1,85,64,43,29.84,29.55,3,0,3,0.00
2013-11-26,37.4,35.4,33.8,33.8,31.3,28.3,87,85,79,29.55,29.30,4,1,4,0.00
2013-11-27,38.5,28.6,20.5,28.3,17.3,13.1,79,63,43,29.75,29.39,6,1,6,0.00
2013-11-28,50.0,30.6,18.5,21.2,16.9,11.5,75,59,32,29.87,29.75,5,1,5,0.00
2013-11-29,56.2,37.0,25.6,31.1,24.6,19.3,78,62,38,29.96,29.83,2,0,2,0.00
2013-11-30,63.5,43.4,30.2,31.8,27.1,23.6,78,56,27,29.85,29.63,8,1,8,0.00
2013-12-1,54.9,48.2,37.4,38.4,33.8,27.2,70,58,47,29.63,29.34,4,1,4,0.00
2013-12-2,55.4,51.6,46.4,48.2,44.7,37.9,85,77,69,29.34,29.15,2,0,2,0.00
2013-12-3,60.1,55.4,50.4,53.5,50.5,46.0,86,84,76,29.21,29.15,3,1,3,0.00
2013-12-4,76.5,66.3,57.6,61.2,58.0,53.5,86,75,53,29.28,29.16,7,2,7,0.00
2013-12-5,67.7,51.6,34.2,62.2,47.2,31.0,88,85,81,29.51,29.27,8,2,8,0.00
2013-12-6,34.2,32.5,28.1,31.0,29.3,25.0,88,88,87,29.76,29.44,3,1,3,0.00
2013-12-7,29.9,27.5,24.8,26.8,24.5,21.8,88,88,87,29.90,29.68,4,1,4,0.00
2013-12-8,39.2,34.7,29.9,36.1,31.7,26.8,90,89,88,29.68,29.44,1,0,1,0.00
2013-12-9,37.4,32.6,29.9,34.5,28.7,25.4,89,85,83,29.61,29.48,3,1,3,0.00
2013-12-10,47.5,32.3,25.9,33.1,25.0,21.2,86,75,53,29.79,29.53,2,0,2,0.00
2013-12-11,51.5,33.4,22.7,33.3,24.8,18.5,86,72,40,29.93,29.76,4,1,4,0.00
2013-12-12,45.0,28.5,18.7,23.6,17.9,13.5,81,66,38,29.98,29.77,2,0,2,0.00
2013-12-13,45.0,34.9,22.1,30.9,22.0,16.0,77,61,38,29.77,29.38,3,1,3,0.00
2013-12-14,46.6,41.0,35.1,43.0,36.5,30.9,88,84,66,29.42,29.20,4,2,4,0.00
2013-12-15,35.1,32.8,30.8,31.0,28.1,26.5,86,83,76,29.61,29.42,4,1,4,0.00
2013-12-16,58.3,41.5,29.0,39.8,32.3,25.2,87,71,44,29.58,29.48,6,2,6,0.00
2013-12-17,64.1,45.1,32.0,41.1,32.9,24.4,76,63,43,29.68,29.49,5,2,5,0.00
2013-12-18,56.5,40.1,27.7,31.4,24.7,20.0,80,57,28,29.75,29.57,3,1,3,0.00
2013-12-19,63.5,51.6,38.5,47.2,37.5,25.3,65,58,54,29.60,29.43,7,2,7,0.00
2013-12-20,62.6,59.2,54.0,57.1,51.4,38.0,84,76,54,29.43,29.31,9,3,9,0.00
2013-12-21,73.3,66.6,60.8,65.3,60.6,56.3,85,81,75,29.30,28.99,13,4,13,0.00
2013-12-22,60.7,54.5,42.7,56.2,49.9,38.4,86,84,81,29.52,29.08,4,2,4,0.00
2013-12-23,45.0,35.7,27.7,38.2,29.4,21.7,87,78,60,29.84,29.53,5,1,5,0.00
2013-12-24,39.4,27.6,22.3,22.0,18.5,14.5,81,70,46,29.95,29.81,4,1,4,0.00
2013-12-25,51.5,33.0,20.2,24.2,19.2,14.0,79,59,31,29.82,29.67,3,1,3,0.00
2013-12-26,53.1,35.8,29.0,33.5,24.7,20.2,80,65,43,29.82,29.70,2,0,2,0.00
2013-12-27,59.0,38.6,27.2,34.0,25.4,21.5,80,61,30,29.85,29.75,3,0,3,0.00
2013-12-28,47.3,38.7,30.2,35.9,30.0,23.0,85,72,51,29.74,29.36,3,0,3,0.00
2013-12-29,60.5,45.3,33.7,46.1,37.9,28.4,86,76,54,29.54,29.32,5,1,5,0.00
2013-12-30,33.7,31.3,27.2,28.4,25.3,22.3,82,78,75,29.68,29.54,3,1,3,0.00
2013-12-31,52.9,32.8,24.1,32.2,24.2,19.7,84,72,45,29.83,29.67,2,1,2,0.00
2014-1-1,55.8,38.1,24.5,35.5,27.3,19.8,83,67,40,29.71,29.35,5,1,5,0.00
2014-1-2,45.2,33.4,20.3,41.2,27.8,12.2,87,80,69,29.75,29.26,5,2,5,0.00